When you browse on this site, cookies collect data to enhance your experience and personalize the content and advertising you see.
Visit our Privacy Policy to learn more. By continuing to use the site, you agree to this use of cookies and data.
  • In Romania
  • List of Countries
  • For 7 days
  • Water Temperature
  • Satellite Maps
  • Weather Map
  • Weather Widgets
  • user-avatar
    Login

    Hourly Weather Artashat

    Today, 18 January, Friday

    Time Temperature Precipitation Wind Pressure Humidity
    00:00 -12°C° 0.1 mm 4 mps 592 mmHg 73%
    01:00 -12°C° 0 mm 4 mps 593 mmHg 72%
    02:00 -14°C° 0 mm 4 mps 593 mmHg 71%
    03:00 -13°C° 0 mm 3 mps 594 mmHg 67%
    04:00 -13°C° 0 mm 3 mps 594 mmHg 66%
    05:00 -14°C° 0 mm 3 mps 594 mmHg 66%
    06:00 -14°C° 0 mm 3 mps 595 mmHg 66%
    07:00 -13°C° 0 mm 3 mps 595 mmHg 66%
    08:00 -13°C° 0 mm 3 mps 596 mmHg 65%
    09:00 -12°C° 0 mm 2 mps 597 mmHg 65%
    10:00 -9°C° 0 mm 2 mps 597 mmHg 63%
    11:00 -8°C° 0 mm 2 mps 597 mmHg 61%
    12:00 -7°C° 0 mm 2 mps 598 mmHg 59%
    13:00 -7°C° 0 mm 2 mps 598 mmHg 60%
    14:00 -7°C° 0 mm 2 mps 598 mmHg 60%
    15:00 -6°C° 0 mm 2 mps 597 mmHg 60%
    16:00 -8°C° 0 mm 2 mps 597 mmHg 61%
    17:00 -9°C° 0 mm 2 mps 597 mmHg 62%
    18:00 -10°C° 0 mm 1 mps 597 mmHg 63%
    19:00 -12°C° 0 mm 2 mps 597 mmHg 62%
    20:00 -12°C° 0 mm 2 mps 598 mmHg 62%
    21:00 -13°C° 0 mm 2 mps 598 mmHg 61%
    22:00 -13°C° 0 mm 2 mps 598 mmHg 60%
    23:00 -13°C° 0 mm 2 mps 598 mmHg 59%

    Tomorrow, 19 January, Saturday

    Time Temperature Precipitation Wind Pressure Humidity
    00:00 -13°C° 0 mm 2 mps 598 mmHg 58%
    01:00 -13°C° 0 mm 2 mps 598 mmHg 57%
    02:00 -13°C° 0 mm 2 mps 598 mmHg 56%
    03:00 -14°C° 0 mm 2 mps 598 mmHg 55%
    04:00 -14°C° 0 mm 2 mps 598 mmHg 54%
    05:00 -14°C° 0 mm 2 mps 598 mmHg 53%
    06:00 -14°C° 0 mm 2 mps 598 mmHg 52%
    07:00 -13°C° 0 mm 2 mps 598 mmHg 52%
    08:00 -13°C° 0 mm 2 mps 598 mmHg 51%
    09:00 -12°C° 0 mm 2 mps 599 mmHg 50%
    10:00 -8°C° 0 mm 1 mps 599 mmHg 49%
    11:00 -7°C° 0 mm 1 mps 599 mmHg 48%
    12:00 -6°C° 0 mm 0 mps 599 mmHg 46%
    13:00 -5°C° 0 mm 0 mps 599 mmHg 48%
    14:00 -5°C° 0 mm 0 mps 599 mmHg 49%
    15:00 -5°C° 0 mm 0 mps 599 mmHg 51%
    16:00 -6°C° 0 mm 1 mps 598 mmHg 52%
    17:00 -8°C° 0 mm 1 mps 598 mmHg 53%
    18:00 -9°C° 0 mm 1 mps 598 mmHg 54%
    19:00 -10°C° 0 mm 1 mps 598 mmHg 52%
    20:00 -12°C° 0 mm 2 mps 598 mmHg 50%
    21:00 -12°C° 0 mm 2 mps 598 mmHg 47%
    22:00 -13°C° 0 mm 2 mps 598 mmHg 45%
    23:00 -13°C° 0 mm 2 mps 598 mmHg 42%

    Day after tomorrow, 20 January, Sunday

    Time Temperature Precipitation Wind Pressure Humidity
    00:00 -13°C° 0 mm 2 mps 598 mmHg 40%
    01:00 -13°C° 0 mm 2 mps 598 mmHg 38%
    02:00 -13°C° 0 mm 2 mps 598 mmHg 37%
    03:00 -13°C° 0 mm 2 mps 598 mmHg 35%
    04:00 -13°C° 0 mm 2 mps 598 mmHg 35%
    05:00 -11°C° 0 mm 1 mps 598 mmHg 36%
    06:00 -11°C° 0 mm 1 mps 598 mmHg 36%
    07:00 -10°C° 0 mm 1 mps 598 mmHg 37%
    08:00 -10°C° 0 mm 1 mps 599 mmHg 38%
    09:00 -9°C° 0 mm 1 mps 599 mmHg 39%
    10:00 -8°C° 0 mm 1 mps 599 mmHg 38%
    11:00 -6°C° 0 mm 1 mps 600 mmHg 38%
    12:00 -5°C° 0 mm 0 mps 600 mmHg 37%
    13:00 -5°C° 0 mm 0 mps 599 mmHg 40%
    14:00 -5°C° 0 mm 0 mps 599 mmHg 42%
    15:00 -4°C° 0 mm 1 mps 599 mmHg 45%
    16:00 -6°C° 0 mm 1 mps 599 mmHg 46%
    17:00 -7°C° 0 mm 1 mps 599 mmHg 46%
    18:00 -9°C° 0 mm 1 mps 598 mmHg 47%
    19:00 -9°C° 0 mm 1 mps 599 mmHg 47%
    20:00 -9°C° 0 mm 1 mps 599 mmHg 47%
    21:00 -10°C° 0 mm 1 mps 599 mmHg 47%
    22:00 -10°C° 0 mm 1 mps 599 mmHg 47%
    23:00 -10°C° 0 mm 1 mps 599 mmHg 46%

    21 January, Monday

    Time Temperature Precipitation Wind Pressure Humidity
    00:00 -10°C° 0 mm 1 mps 599 mmHg 46%
    01:00 -10°C° 0 mm 1 mps 599 mmHg 46%
    02:00 -11°C° 0 mm 1 mps 599 mmHg 45%
    03:00 -11°C° 0 mm 1 mps 599 mmHg 45%
    04:00 -11°C° 0 mm 1 mps 598 mmHg 45%
    05:00 -11°C° 0 mm 1 mps 598 mmHg 45%
    06:00 -11°C° 0 mm 1 mps 598 mmHg 45%
    07:00 -11°C° 0 mm 1 mps 598 mmHg 46%
    08:00 -10°C° 0 mm 1 mps 599 mmHg 46%
    09:00 -9°C° 0 mm 1 mps 599 mmHg 47%
    10:00 -8°C° 0 mm 1 mps 599 mmHg 45%
    11:00 -7°C° 0 mm 1 mps 599 mmHg 44%
    12:00 -5°C° 0 mm 0 mps 599 mmHg 43%
    13:00 -5°C° 0 mm 0 mps 599 mmHg 46%
    14:00 -4°C° 0 mm 1 mps 598 mmHg 48%
    15:00 -4°C° 0 mm 1 mps 598 mmHg 51%
    16:00 -6°C° 0 mm 1 mps 598 mmHg 52%
    17:00 -7°C° 0 mm 1 mps 597 mmHg 54%
    18:00 -9°C° 0 mm 1 mps 597 mmHg 55%
    19:00 -9°C° 0 mm 1 mps 597 mmHg 55%
    20:00 -12°C° 0 mm 2 mps 597 mmHg 56%
    21:00 -12°C° 0 mm 2 mps 597 mmHg 56%
    22:00 -12°C° 0 mm 2 mps 597 mmHg 55%
    23:00 -12°C° 0 mm 2 mps 597 mmHg 54%

    22 January, Tuesday

    Time Temperature Precipitation Wind Pressure Humidity
    00:00 -12°C° 0 mm 2 mps 597 mmHg 54%
    01:00 -13°C° 0 mm 2 mps 597 mmHg 53%
    02:00 -13°C° 0 mm 2 mps 597 mmHg 53%
    03:00 -13°C° 0 mm 2 mps 597 mmHg 52%
    04:00 -13°C° 0 mm 2 mps 596 mmHg 52%
    05:00 -13°C° 0 mm 2 mps 596 mmHg 52%
    06:00 -13°C° 0 mm 2 mps 596 mmHg 52%
    07:00 -13°C° 0 mm 2 mps 597 mmHg 52%
    08:00 -12°C° 0 mm 2 mps 597 mmHg 52%
    09:00 -9°C° 0 mm 1 mps 597 mmHg 52%
    10:00 -8°C° 0 mm 1 mps 597 mmHg 50%
    11:00 -6°C° 0 mm 1 mps 597 mmHg 48%
    12:00 -5°C° 0 mm 0 mps 597 mmHg 46%
    13:00 -5°C° 0 mm 0 mps 597 mmHg 47%
    14:00 -4°C° 0 mm 0 mps 597 mmHg 49%
    15:00 -4°C° 0 mm 0 mps 596 mmHg 51%
    16:00 -6°C° 0 mm 1 mps 596 mmHg 53%
    17:00 -7°C° 0 mm 1 mps 596 mmHg 54%
    18:00 -8°C° 0 mm 1 mps 596 mmHg 56%
    19:00 -9°C° 0 mm 1 mps 596 mmHg 56%
    20:00 -9°C° 0 mm 1 mps 596 mmHg 57%
    21:00 -9°C° 0 mm 1 mps 596 mmHg 57%
    22:00 -9°C° 0 mm 1 mps 596 mmHg 57%
    23:00 -10°C° 0 mm 1 mps 596 mmHg 57%

    23 January, Wednesday

    Time Temperature Precipitation Wind Pressure Humidity
    00:00 -10°C° 0 mm 1 mps 596 mmHg 57%
    01:00 -10°C° 0 mm 1 mps 596 mmHg 57%
    02:00 -10°C° 0 mm 1 mps 596 mmHg 57%
    03:00 -10°C° 0 mm 1 mps 596 mmHg 58%
    04:00 -10°C° 0 mm 1 mps 596 mmHg 58%
    05:00 -10°C° 0 mm 1 mps 596 mmHg 59%
    06:00 -10°C° 0 mm 1 mps 596 mmHg 59%
    07:00 -10°C° 0 mm 1 mps 596 mmHg 60%
    08:00 -9°C° 0 mm 1 mps 597 mmHg 60%
    09:00 -8°C° 0 mm 1 mps 597 mmHg 61%
    10:00 -7°C° 0 mm 1 mps 597 mmHg 60%
    11:00 -6°C° 0 mm 1 mps 597 mmHg 59%
    12:00 -4°C° 0 mm 1 mps 597 mmHg 58%
    13:00 -4°C° 0 mm 1 mps 597 mmHg 60%
    14:00 -4°C° 0 mm 1 mps 597 mmHg 61%
    15:00 -3°C° 0 mm 1 mps 597 mmHg 63%
    16:00 -4°C° 0 mm 1 mps 597 mmHg 64%
    17:00 -6°C° 0 mm 1 mps 597 mmHg 65%
    18:00 -7°C° 0 mm 1 mps 597 mmHg 67%
    19:00 -8°C° 0.1 mm 1 mps 597 mmHg 67%
    20:00 -8°C° 0.1 mm 1 mps 597 mmHg 68%
    21:00 -9°C° 0.1 mm 2 mps 597 mmHg 69%
    22:00 -8°C° 0.1 mm 1 mps 597 mmHg 69%
    23:00 -9°C° 0.1 mm 1 mps 597 mmHg 70%
    Show more